• MPC Preparation (Info)

  • MPEC 1995-G01 : 1995 FX

    The following Minor Planet Electronic Circular may be linked-to from your own Web pages, but must not otherwise be redistributed electronically.

    A form allowing access to any MPEC is at the bottom of this page.


    Read MPEC 1995-F10 Read MPEC 1995-G02


    M.P.E.C. 1995-G01                                Issued 1995 Apr. 2, 19:39 UT
    
         The Minor Planet Electronic Circulars contain information on unusual
             minor planets and routine data on comets.  They are published
       on behalf of Commission 20 of the International Astronomical Union by the
              Minor Planet Center, Smithsonian Astrophysical Observatory,
                              Cambridge, MA 02138, U.S.A.
    
                 BMARSDEN@CFA.HARVARD.EDU or GWILLIAMS@CFA.HARVARD.EDU
    
                                        1995 FX
    
    Observations:
         J95F00X*  1995 03 30.94942 11 39 34.37 +02 30 24.6          15   V      010
         J95F00X   1995 03 30.96331 11 39 43.38 +02 34 44.8                      010
         J95F00X   1995 03 30.96678 11 39 45.85 +02 35 53.5                      010
         J95F00X   1995 03 30.97025 11 39 47.89 +02 36 53.2                      010
         J95F00X   1995 04 01.99132 12 06 21.82 +14 14 58.2                      010
         J95F00X   1995 04 01.99271 12 06 22.95 +14 15 28.5                      010
         J95F00X   1995 04 01.99410 12 06 24.10 +14 15 58.7                      010
         J95F00X p 1995 04 01.99583 12 06 25.52 +14 16 35.2                      010
         J95F00X   1995 04 01.99722 12 06 26.70 +14 17 06.5                      010
         J95F00X   1995 04 02.03819 12 07 01.26 +14 32 09.8                      010
         J95F00X   1995 04 02.03889 12 07 01.87 +14 32 24.4                      010
         J95F00X p 1995 04 02.03958 12 07 02.42 +14 32 39.6                      010
         J95F00X   1995 04 02.04028 12 07 03.02 +14 32 54.9                      010
         J95F00X   1995 04 02.04097 12 07 03.62 +14 33 12.4                      010
         J95F00X p 1995 04 02.04236 12 07 04.68 +14 33 40.5                      010
         J95F00X  C1995 04 02.64072 12 16 12.07 +18 16 08.2                      411
         J95F00X  C1995 04 02.65144 12 16 21.78 +18 20 06.8                      411
         J95F00X  C1995 04 02.65548 12 16 23.77 +18 23 56.1                      422
         J95F00X  C1995 04 02.65672 12 16 26.42 +18 22 04.4                      411
         J95F00X  C1995 04 02.65682 12 16 24.96 +18 24 26.3                      422
         J95F00X  C1995 04 02.65797 12 16 26.00 +18 24 51.3                      422
         J95F00X  C1995 04 02.65915 12 16 27.08 +18 25 19.1                      422
         J95F00X  C1995 04 02.66290 12 16 30.47 +18 26 42.1                      422
         J95F00X  C1995 04 02.66411 12 16 33.15 +18 24 50.2          15.1 V      897
         J95F00X IC1995 04 02.66495 12 16 32.30 +18 27 28.3                      422
         J95F00X  C1995 04 02.66529 12 16 34.19 +18 25 16.2                      897
         J95F00X  C1995 04 02.66672 12 16 35.50 +18 25 49.4                      897
         J95F00X  C1995 04 02.66691 12 16 34.07 +18 28 11.7                      422
         J95F00X  C1995 04 02.66946 12 16 36.37 +18 29 08.3                      422
         J95F00X  C1995 04 02.67096 12 16 37.78 +18 29 42.0                      422
         J95F00X  C1995 04 02.67662 12 16 43.02 +18 31 48.7                      413
         J95F00X  C1995 04 02.67743 12 16 43.77 +18 32 07.1                      413
    
    Observer details:
    010 Caussols.  Observer C. Pollas.  0.9-m OCA Schmidt.
    411 Oizumi.  Observer T. Kobayashi.  0.25-m f/4.4 reflector + CCD.
    413 Siding Spring Observatory.  Observer M. Arnaboldi.  Measurer R. H. McNaught.
        1.0-m reflector + CCD.
    422 Loomberah.  Observers G. J. Garradd.  0.25-m reflector + CCD.
    897 YGCO Chiyoda Station.  Observer T. Kojima.  0.25-m f/6.0 reflector + CCD.
    
    Orbital elements:
    1995 FX
    Epoch 1995 Mar. 24.0 TT = JDT 2449800.5                 Williams
    M 351.24771              (2000.0)            P               Q
    n   0.28787434     Peri.   26.95088     -0.81695182     +0.57394107
    a   2.2716116      Node   188.75343     -0.57299307     -0.81888094
    e   0.5477202      Incl.   21.75454     -0.06533501     +0.00506465
    P   3.42           H    20.0          G   0.15
    From 29 observations 1995 Mar. 30-Apr. 2.
    
    Ephemeris:
    1995 FX                  a,e,i = 2.27, 0.55, 22                  q = 1.0274
    Date    TT    R. A. (2000) Decl.     Delta      r     Elong.  Phase     V
    1995 03 24    10 43.13   -22 03.4    0.111    1.095   150.1    27.0    16.6
    1995 03 25    10 48.84   -19 46.9    0.104    1.091   152.3    25.2    16.4
    1995 03 26    10 55.20   -17 10.0    0.098    1.087   154.6    23.2    16.2
    1995 03 27    11 02.30   -14 09.5    0.092    1.083   157.1    21.0    16.0
    1995 03 28    11 10.23   -10 42.2    0.086    1.079   159.7    18.7    15.8
    1995 03 29    11 19.10   -06 44.8    0.080    1.075   162.2    16.5    15.6
    1995 03 30    11 29.04   -02 15.1    0.076    1.072   164.1    14.8    15.4
    1995 03 31    11 40.16   +02 47.6    0.072    1.068   164.4    14.5    15.2
    1995 04 01    11 52.60   +08 21.0    0.069    1.065   162.7    16.2    15.2
    1995 04 02    12 06.50   +14 19.0    0.066    1.062   158.9    19.8    15.2
    1995 04 03    12 21.97   +20 31.0    0.065    1.059   153.7    24.8    15.3
    1995 04 04    12 39.09   +26 43.2    0.065    1.056   147.7    30.4    15.5
    1995 04 05    12 57.88   +32 40.3    0.066    1.053   141.5    36.3    15.7
    1995 04 06    13 18.27   +38 08.9    0.068    1.050   135.4    42.0    15.9
    1995 04 07    13 40.08   +42 59.2    0.071    1.048   129.7    47.3    16.1
    1995 04 08    14 03.00   +47 06.5    0.075    1.045   124.4    52.2    16.4
    1995 04 09    14 26.59   +50 30.1    0.079    1.043   119.8    56.4    16.6
    1995 04 10    14 50.35   +53 12.7    0.084    1.041   115.7    60.1    16.9
    1995 04 11    15 13.76   +55 18.7    0.090    1.039   112.1    63.3    17.1
    1995 04 12    15 36.32   +56 53.8    0.096    1.037   108.9    66.1    17.3
    1995 04 13    15 57.66   +58 03.2    0.102    1.036   106.2    68.4    17.5
    1995 04 14    16 17.52   +58 52.3    0.108    1.034   103.9    70.3    17.7
    1995 04 15    16 35.78   +59 25.3    0.115    1.033   101.8    71.9    17.9
    1995 04 16    16 52.41   +59 46.0    0.122    1.032   100.0    73.3    18.1
    1995 04 17    17 07.45   +59 57.4    0.129    1.031    98.5    74.4    18.2
    1995 04 18    17 21.01   +60 01.9    0.136    1.030    97.2    75.3    18.4
    1995 04 19    17 33.21   +60 01.2    0.143    1.029    96.0    76.1    18.5
    1995 04 20    17 44.17   +59 56.7    0.150    1.028    95.0    76.7    18.6
    1995 04 21    17 54.03   +59 49.5    0.157    1.028    94.1    77.2    18.7
    1995 04 22    18 02.91   +59 40.3    0.164    1.028    93.3    77.6    18.8
    1995 04 23    18 10.93   +59 29.8    0.171    1.027    92.6    77.8    18.9
    
    1995 04 28    18 41.11   +58 29.1    0.207    1.029    90.4    78.0    19.4
    1995 05 03    19 00.43   +57 28.3    0.242    1.034    89.5    77.0    19.7
    1995 05 08    19 13.42   +56 32.3    0.276    1.044    89.4    75.2    19.9
    1995 05 13    19 22.38   +55 40.8    0.308    1.056    90.0    73.0    20.1
    1995 05 18    19 28.52   +54 52.3    0.339    1.072    91.0    70.6    20.3
    1995 05 23    19 32.50   +54 04.6    0.367    1.091    92.4    67.9    20.4
    1995 05 28    19 34.70   +53 15.1    0.394    1.113    94.1    65.2    20.5
    1995 06 02    19 35.40   +52 21.3    0.419    1.138    96.1    62.4    20.6
    1995 06 07    19 34.87   +51 20.7    0.442    1.165    98.4    59.5    20.7
    1995 06 12    19 33.36   +50 11.3    0.464    1.193   100.9    56.7    20.8
    1995 06 17    19 31.06   +48 51.5    0.484    1.224   103.6    53.8    20.8
    1995 06 22    19 28.18   +47 19.8    0.503    1.256   106.5    50.9    20.9
    
                           (Last issue was M.P.E.C. 1995-F10)
    
    Gareth V. Williams                                            M.P.E.C. 1995-G01
    

    Read MPEC 1995-F10 Read MPEC 1995-G02


    MPEC number:

    Enter an MPEC number in one of the following forms:

    • 1997-B01 (the full form)
    • J97B01 (the packed version of the full form)
    • B01 (the abbreviated form)